| time (UTC) | temp C | wind direction | speed KPH | gust KPH | rain 1hr cm | rain 24hr cm | rain mn cm | humidity % | barometer mb |
| 20260502163605 | 16 | 38 | 1.6 | 1.6 | 0.00 | 0.00 | 0.00 | 59 | 1012.8 |
| 20260502163105 | 16 | 38 | 0.0 | 4.8 | 0.00 | 0.00 | 0.00 | 60 | 1012.8 |
| 20260502160604 | 16 | 38 | 3.2 | 4.8 | 0.00 | 0.00 | 0.00 | 58 | 1012.9 |
| 20260502160104 | 16 | 38 | 0.0 | 4.8 | 0.00 | 0.00 | 0.00 | 60 | 1013.0 |
| 20260502150104 | 17 | 38 | 1.6 | 8.0 | 0.00 | 0.00 | 0.00 | 63 | 1013.6 |
| 20260502130604 | 17 | 39 | 3.2 | 8.0 | 0.00 | 0.00 | 0.00 | 59 | 1014.8 |
| 20260502130104 | 17 | 40 | 3.2 | 11.3 | 0.00 | 0.00 | 0.00 | 59 | 1014.8 |
| 20260502110604 | 15 | 191 | 1.6 | 4.8 | 0.00 | 0.00 | 0.00 | 69 | 1016.1 |
| 20260502110104 | 15 | 119 | 3.2 | 11.3 | 0.00 | 0.00 | 0.00 | 66 | 1016.1 |
| 20260502103105 | 15 | 78 | 1.6 | 9.7 | 0.00 | 0.00 | 0.00 | 71 | 1016.1 |
| 20260502100605 | 14 | 172 | 1.6 | 8.0 | 0.00 | 0.00 | 0.00 | 73 | 1016.4 |
| 20260502090603 | 12 | 38 | 3.2 | 4.8 | 0.00 | 0.00 | 0.00 | 82 | 1016.9 |
| 20260502080104 | 10 | 37 | 1.6 | 8.0 | 0.00 | 0.00 | 0.00 | 97 | 1017.0 |
| 20260502070105 | 7 | 37 | 0.0 | 1.6 | 0.00 | 0.00 | 0.00 | 100 | 1017.3 |
| 20260502053104 | 5 | 37 | 0.0 | 0.0 | 0.00 | 0.00 | 0.00 | 100 | 1017.0 |
| 20260502050604 | 5 | 37 | 0.0 | 0.0 | 0.00 | 0.00 | 0.00 | 100 | 1017.0 |
| 20260502043104 | 5 | 37 | 0.0 | 0.0 | 0.00 | 0.00 | 0.00 | 100 | 1017.0 |
| 20260502040603 | 5 | 37 | 0.0 | 0.0 | 0.00 | 0.00 | 0.00 | 100 | 1017.0 |
| 20260502033104 | 6 | 37 | 0.0 | 1.6 | 0.00 | 0.00 | 0.00 | 100 | 1017.3 |
| 20260502030603 | 6 | 37 | 0.0 | 0.0 | 0.00 | 0.00 | 0.00 | 100 | 1017.3 |
| 20260502020603 | 7 | 37 | 0.0 | 0.0 | 0.00 | 0.00 | 0.00 | 100 | 1017.5 |
| 20260502020104 | 7 | 37 | 0.0 | 0.0 | 0.00 | 0.00 | 0.00 | 100 | 1017.5 |
| 20260502003105 | 8 | 37 | 0.0 | 0.0 | 0.00 | 0.00 | 0.00 | 100 | 1018.1 |
| 20260502000603 | 8 | 37 | 0.0 | 0.0 | 0.00 | 0.00 | 0.00 | 100 | 1018.2 |
| 20260502000105 | 8 | 37 | 0.0 | 0.0 | 0.00 | 0.00 | 0.00 | 100 | 1018.3 |
| 20260501210105 | 12 | 37 | 0.0 | 4.8 | 0.00 | 0.00 | 0.00 | 96 | 1018.4 |
| 20260501203603 | 12 | 37 | 0.0 | 1.6 | 0.00 | 0.00 | 0.00 | 94 | 1018.5 |
| 20260501193604 | 13 | 37 | 0.0 | 9.7 | 0.00 | 0.00 | 0.00 | 91 | 1018.4 |